Location: Pace/Milton
(30.6162°N, 87.1503°W)
Time: 10:45:29
(UTC-06:00)

Envisat - Pass Details

Date: 09 December 2021
Orbit: 764 x 766 km, 98.2° (Epoch: 23 January)

Event Time Altitude Azimuth Distance (km) Brightness Sun altitude
Rises 04:50:04 0° 9° (N) 3,234 6.2 -21.9°
Reaches altitude 10° 04:52:23 10° 8° (N) 2,304 5.4 -21.4°
Maximum altitude 04:57:26 74° 284° (WNW) 796 2.8 -20.4°
Drops below altitude 10° 05:02:29 10° 200° (SSW) 2,290 5.4 -19.3°
Sets 05:04:46 0° 198° (SSW) 3,213 6.2 -18.8°
